SCP
0 0 0 0 0 0 0 0 0 0 0 0 0 0 0 0 0 0 -0 -0 -0 -0 -0 -0 -0 -0 -0 -0 -0 -0 0 0 0 0 0 0 0 0 -0 -0 -0 0 -0 0
0 0 0 0 0 0 0 0 0 0 0 0 0 0 0 0 0 0 -0 -0 -0 -0 -0 -0 -0 -0 -0 -0 -0 -0 -0 0 0 0 0 0 0 0 0 -0 -0 -0 -0 0
0 0 0 0 0 0 0 0 0 0 0 0 0 0 0 0 0 0 -0 -0 -0 -0 -0 -0 -0 -0 -0 -0 -0 -0 -0 0 0 0 0 0 0 0 0 0 0 -0 -0 0
0 0 0 0 0 0 0 0 0 0 0 0 0 0 0 0 0 0 -0 -0 -0 -0 -0 -0 -0 -0 -0 -0 -0 -0 -0 0 0 0 0 0 0 0 0 0 0 0 0 -0
0 0 0 0 0 0 0 0 0 0 0 0 0 -0 0 0 0 0 0 -0 -0 -0 -0 -0 -0 -0 -0 -0 -0 -0 -0 -0 -0 0 0 0 0 0 0 0 0 0 0 -0
0 0 0 0 0 0 0 0 0 0 0 0 -0 0 0 0 0 0 0 -0 -0 -0 -0 -0 -0 -0 -0 -0 -0 -0 -0 -0 -0 -0 0 0 0 0 0 0 0 0 0 -0
0 0 0 0 0 0 0 0 0 0 0 0 0 0 -0 0 -0 0 0 0 -0 -0 -0 -0 -0 -0 -0 -0 -0 -0 -0 -0 -0 -0 -0 -0 0 0 0 0 0 0 0 0
0 0 0 0 0 0 0 0 0 0 0 0 0 0 0 -0 0 0 0 -0 -0 -0 -0 -0 -0 -0 -0 -0 -0 -0 -0 -0 -0 -0 -0 -0 -0 0 0 0 0 0 0 0
0 0 0 0 0 0 0 0 0 0 0 0 0 0 0 -0 0 0 -0 0 -0 -0 -0 -0 -0 -0 -0 -0 -0 -0 -0 -0 -0 -0 -0 -0 -0 0 0 0 0 0 0 0
0 0 0 0 0 0 0 0 0 0 0 0 0 0 0 0 0 0 -0 0 0 -0 -0 -0 -0 -0 -0 -0 -0 -0 -0 -0 -0 -0 -0 -0 -0 0 0 0 0 0 0 0
0 0 0 0 0 0 0 0 0 0 0 0 0 0 0 0 0 0 0 0 0 0 -0 -0 -0 -0 -0 -0 -0 -0 -0 -0 -0 -0 -0 -0 -0 0 -0 0 0 0 0 0
0 0 0 0 0 0 0 0 0 0 0 0 0 0 0 0 0 0 0 0 0 0 0 -0 -0 -0 -0 -0 -0 -0 -0 -0 -0 -0 -0 -0 0 0 -0 -0 0 0 0 0
0 0 0 0 0 0 0 0 0 0 0 0 0 0 0 0 0 0 0 0 0 0 0 0 0 -0 -0 -0 -0 -0 -0 -0 -0 -0 -0 -0 -0 0 0 -0 -0 0 0 0
0 0 0 0 0 0 0 0 0 0 0 0 0 0 0 0 0 0 0 0 0 0 0 0 0 -0 -0 -0 -0 -0 -0 0 0 0 0 0 0 -0 -0 0 0 0 -0 0
-0 0 0 0 0 0 0 0 0 0 0 0 0 0 0 0 0 0 0 0 0 0 0 0 0 0 -0 -0 0 0 0 0 0 0 0 0 0 0 -0 -0 -0 -0 0 -0
0 0 0 0 0 0 0 0 0 0 0 0 0 0 0 0 0 0 0 0 0 0 0 0 0 0 0 -0 0 0 0 0 0 0 0 0 0 0 0 -0 0 0 0 0
0 0 0 0 0 0 0 0 0 0 0 0 0 0 0 0 0 0 0 0 0 0 0 0 0 0 0 0 0 0 0 0 0 0 0 0 0 0 0 0 0 0 0 0
0 0 0 0 0 -0 0 0 0 0 0 0 0 0 0 0 0 0 0 0 0 0 0 0 0 0 0 0 0 0 0 0 0 0 0 0 0 0 0 0 0 0 0 0
0 0 0 0 0 0 -0 0 0 0 0 0 0 0 0 0 0 0 0 1 0 0 0 0 0 0 0 0 0 0 0 0 0 0 0 0 0 0 0 0 0 0 0 0
0 0 0 0 0 0 0 -0 0 0 0 0 0 0 0 0 0 0 1 1 0 0 0 0 0 0 0 0 0 0 0 0 0 0 0 0 0 0 0 0 0 0 0 0
-0 0 0 0 0 0 0 0 0 0 0 0 0 0 0 0 0 0 0 1 1 0 0 0 0 0 0 0 0 0 0 0 0 0 0 0 0 0 0 0 0 0 0 0
0 0 0 0 0 0 0 0 0 0 0 0 0 0 0 0 0 0 0 0 0 0 0 0 0 0 0 0 0 0 0 0 0 0 0 0 0 0 0 0 0 0 0 0
0 -0 0 0 0 0 0 0 0 0 0 0 0 0 0 0 0 0 0 0 0 0 0 0 0 0 0 0 0 0 0 0 0 0 0 0 0 0 0 0 0 0 0 0
0 -0 -0 0 0 0 0 0 0 0 0 0 0 0 0 0 0 0 0 0 0 0 0 0 0 0 0 0 0 0 0 0 0 0 0 0 0 0 0 0 0 0 0 0
-0 0 0 -0 -0 0 0 0 0 0 0 0 0 0 0 0 0 0 0 0 0 0 0 0 0 0 0 0 0 0 0 0 0 0 0 0 0 0 0 0 0 0 0 0
-0 -0 -0 0 -0 -0 0 0 0 0 0 0 0 0 0 0 0 0 0 0 0 0 0 0 0 0 0 0 0 0 0 0 -0 0 0 0 0 0 0 0 0 0 0 0
-0 -0 -0 -0 -0 0 -0 0 0 0 0 0 0 0 0 0 0 0 0 0 0 0 0 0 0 0 0 0 0 0 0 0 0 0 0 0 0 0 0 0 0 0 0 0
Wind_Speed_500mb
29 28 19 10 43 52 49 40 33 21 38 42 31 29 10 16 30 39 42 47 53 59 58 58 56 48 39 34 36 30 22 22 20 19 15 18 20 20 13 15 17 18 20 24
20 22 18 20 16 42 49 44 35 21 35 37 43 21 8 15 35 45 48 49 52 58 63 62 58 51 44 38 39 34 26 24 22 21 19 16 15 13 15 13 18 18 20 23
21 5 11 21 30 23 27 36 46 41 27 9 19 24 22 25 41 50 54 53 60 69 72 68 58 52 49 42 41 38 30 27 24 23 22 18 14 13 12 12 18 15 16 21
7 3 19 5 20 24 26 19 42 42 35 35 42 53 38 22 39 50 54 58 55 64 70 69 55 49 47 46 44 42 37 30 26 27 26 22 19 16 14 17 19 11 13 21
6 12 6 11 19 11 9 10 25 16 25 33 38 30 44 37 37 54 63 65 60 64 68 71 62 54 52 50 46 45 42 35 30 33 31 27 21 18 17 16 15 13 12 16
4 8 25 18 27 12 4 15 28 24 21 21 25 25 32 34 42 51 59 57 60 61 67 70 65 60 56 55 51 50 45 41 34 35 33 29 25 20 20 20 19 19 23 31
12 6 4 26 30 4 19 6 36 31 29 29 16 27 46 36 31 52 64 66 62 61 66 70 69 66 62 59 58 50 46 44 39 33 36 31 30 24 20 23 20 22 25 31
8 8 7 44 12 5 13 23 31 34 32 39 43 57 61 53 42 36 60 63 67 62 67 69 70 70 67 62 54 52 49 47 45 37 38 37 35 31 24 21 22 22 23 28
7 3 15 27 9 10 20 29 36 40 42 43 47 49 48 51 41 37 54 68 66 68 70 72 75 74 69 60 58 54 54 50 48 43 38 41 41 37 32 25 23 24 23 24
6 10 16 15 21 28 32 32 40 42 44 44 47 47 47 51 42 38 45 63 67 66 73 78 80 79 62 61 62 58 58 54 52 50 45 45 43 39 37 34 29 28 27 24
4 13 28 13 37 43 54 43 47 49 48 44 46 47 43 43 41 42 47 59 71 72 75 80 82 83 78 69 68 66 61 59 56 54 50 46 48 45 44 39 34 31 32 31
4 8 8 34 42 51 45 54 53 56 62 52 47 46 40 36 34 39 47 57 69 73 74 78 79 82 83 78 74 71 68 64 62 60 57 51 50 50 45 42 35 29 25 27
11 25 36 50 59 50 43 54 52 53 54 54 55 50 38 33 31 40 44 56 65 71 74 80 80 79 80 81 79 77 75 69 67 64 61 57 51 49 50 47 44 39 34 33
33 36 26 17 30 56 49 48 50 48 46 50 54 50 39 30 23 37 51 60 63 65 69 78 78 79 74 77 81 78 77 70 68 68 66 64 59 51 43 44 51 52 49 44
28 25 39 46 56 63 48 44 48 46 49 55 56 55 48 36 20 23 34 42 51 56 58 66 76 80 75 71 77 81 80 78 74 67 65 67 64 59 51 42 39 37 48 52
51 48 47 46 54 58 48 41 41 45 46 52 55 58 53 38 28 15 24 36 52 61 66 64 70 81 78 73 73 78 79 78 77 72 68 66 69 66 59 54 49 43 45 48
46 47 44 46 48 53 47 40 41 44 46 46 49 52 49 49 30 20 11 26 36 51 60 64 63 77 81 77 75 78 81 83 82 78 74 69 69 72 69 63 59 55 55 52
52 60 52 54 54 54 48 40 41 42 41 43 46 45 45 45 51 35 22 21 37 41 49 51 56 71 83 81 77 77 81 83 85 87 81 77 72 70 71 68 65 62 58 58
51 47 39 48 54 51 48 44 43 42 38 38 40 39 39 35 46 49 28 22 17 29 36 45 51 61 79 83 78 75 78 82 85 87 86 83 77 74 72 71 69 67 62 60
67 46 36 30 38 39 44 42 37 41 37 34 35 35 34 33 43 44 40 25 17 16 29 38 45 53 65 77 78 75 76 78 81 84 87 86 85 81 78 75 73 72 69 66
65 58 43 19 18 28 33 34 30 37 32 34 34 34 31 34 39 43 37 32 25 19 16 33 40 49 54 66 71 68 69 73 75 75 77 80 81 81 80 77 75 76 74 74
52 62 52 37 15 16 15 23 28 35 34 33 36 32 30 31 36 39 35 29 24 22 19 15 33 46 55 62 65 65 68 65 68 69 70 71 74 73 70 70 72 71 73 71
55 61 59 47 34 28 20 17 24 31 34 40 41 37 27 30 33 34 33 29 22 17 15 18 19 32 45 51 53 48 49 60 64 69 68 67 69 69 62 57 55 57 59 60
59 64 66 60 45 38 34 31 29 25 29 36 24 19 29 32 31 27 25 20 21 17 11 8 12 23 30 47 51 50 35 29 48 55 61 61 62 63 60 58 55 53 54 54
46 52 55 71 72 55 41 38 33 30 24 22 23 19 16 18 23 29 28 25 22 26 24 12 6 13 24 44 49 52 52 49 39 31 47 51 55 60 61 62 63 61 60 59
31 40 40 51 64 64 52 35 36 35 35 31 25 28 28 28 30 38 30 26 29 32 32 32 28 20 26 24 38 50 51 73 74 31 44 45 48 55 57 51 51 52 55 56
40 35 37 45 53 58 58 53 44 43 38 36 36 32 35 41 40 39 41 42 38 37 34 29 35 31 34 33 43 40 34 39 21 35 43 41 42 51 50 48 47 47 47 49
Wind_Direction_500mb
273 276 286 287 219 211 214 216 221 197 218 248 253 291 327 175 168 163 172 174 179 181 185 189 189 185 184 183 186 190 188 182 176 164 133 111 107 85 100 119 127 127 146 146
262 233 252 272 257 225 218 215 218 211 228 230 252 275 248 183 183 176 183 182 183 186 189 191 190 187 188 188 189 191 188 184 182 170 157 128 124 104 85 114 127 132 134 145
218 117 308 264 239 220 225 218 221 225 227 257 250 257 254 200 189 195 187 186 189 191 192 193 189 189 191 191 189 192 189 187 185 177 164 150 136 121 109 119 138 125 149 150
284 208 232 221 28 211 199 207 229 239 247 251 253 263 271 231 210 203 194 194 193 192 194 196 189 188 192 194 189 193 194 192 187 181 169 159 145 127 118 117 139 99 141 160
263 217 315 120 24 6 206 145 15 355 277 264 292 303 274 250 233 222 207 199 205 199 196 195 191 188 191 196 191 195 198 196 191 183 175 168 156 140 128 123 132 126 100 161
268 230 212 36 342 328 243 169 7 354 335 327 331 246 261 265 247 228 215 208 204 197 194 195 191 191 191 197 195 196 198 199 196 188 183 176 170 155 141 132 120 123 96 120
219 268 277 352 328 206 187 32 341 335 326 311 285 252 273 292 286 246 219 207 203 196 195 193 191 191 193 198 201 194 196 200 200 195 189 183 176 168 155 148 135 121 124 122
201 222 224 360 11 60 358 329 335 333 319 307 295 286 285 281 278 244 208 204 206 196 194 192 192 193 196 201 198 195 195 200 202 200 193 188 183 175 169 162 157 140 131 137
229 52 347 346 310 356 340 335 338 329 326 317 307 294 290 279 261 246 217 200 202 198 193 193 194 195 199 202 196 195 197 199 204 201 200 194 191 187 182 176 176 168 154 146
245 48 337 331 31 360 346 336 337 335 329 325 317 305 295 278 254 239 219 210 200 196 197 196 197 197 200 201 196 194 196 199 203 204 201 198 198 199 197 192 186 185 176 169
294 7 334 252 338 341 337 336 337 339 341 336 327 312 300 280 248 232 226 215 207 205 202 201 199 199 199 200 199 197 196 198 202 204 204 203 203 204 207 207 202 192 191 187
336 322 244 285 304 324 327 330 333 336 339 342 337 322 308 284 247 231 224 217 213 211 205 204 202 202 201 203 201 201 197 198 202 203 203 206 206 207 209 208 204 200 199 199
283 289 275 277 292 304 312 321 324 330 336 338 343 335 323 298 250 233 222 222 216 213 213 207 203 204 204 204 202 205 204 200 200 204 205 205 206 206 207 204 204 204 199 196
301 300 291 295 293 304 313 316 317 323 333 344 347 348 340 327 264 231 221 228 228 215 208 207 205 205 207 206 205 205 207 208 205 202 205 207 208 207 203 204 205 205 202 201
299 285 287 293 291 293 301 313 314 322 332 340 348 353 355 348 324 246 232 227 219 211 206 205 204 205 207 206 207 204 206 208 209 208 207 208 209 210 210 208 208 210 212 207
298 289 286 285 283 286 292 301 304 310 324 333 341 351 356 351 344 300 232 220 217 215 214 213 206 204 206 207 208 205 208 211 209 210 210 210 212 213 213 215 217 214 220 217
285 284 280 278 277 280 283 291 293 298 311 323 335 343 351 360 358 354 251 217 224 229 222 219 217 205 204 211 210 206 208 210 211 213 212 212 212 214 216 217 220 222 226 226
318 288 279 269 270 273 280 280 283 288 300 316 326 336 345 355 3 353 340 251 228 224 225 227 222 211 206 210 212 211 210 212 211 214 215 214 215 217 219 220 222 225 228 232
344 328 291 277 260 264 271 277 279 281 292 309 318 326 335 344 359 2 345 340 255 235 237 230 228 223 213 211 213 214 214 214 214 214 218 219 219 220 220 222 225 226 226 230
354 354 326 289 251 250 265 272 278 283 291 303 310 315 321 331 348 357 357 336 341 267 242 230 224 222 221 221 216 214 216 216 216 217 219 220 221 221 224 226 227 229 229 231
353 356 4 330 270 255 261 270 277 280 292 302 301 303 310 319 335 343 344 341 325 300 290 240 226 224 220 221 219 214 216 218 217 219 222 224 225 225 227 230 231 233 235 235
353 0 4 12 338 295 293 280 282 282 284 295 295 296 303 304 315 331 331 323 320 311 276 269 228 223 223 220 217 213 217 218 217 219 222 226 228 228 228 233 235 237 237 238
4 8 10 9 5 2 344 309 290 291 284 278 289 287 289 287 293 312 326 326 306 299 281 266 255 233 222 218 209 213 218 219 220 220 223 226 231 232 231 230 233 234 235 234
12 11 18 23 19 9 359 339 323 327 289 282 292 294 290 281 273 292 310 319 311 280 294 267 269 260 222 202 212 212 205 248 228 228 227 228 232 235 233 232 229 231 235 237
20 14 22 29 27 18 360 353 343 330 319 288 280 274 283 288 293 294 290 293 306 307 266 252 199 180 196 200 208 222 210 259 246 242 256 245 238 235 233 231 229 230 233 235
21 19 16 21 31 26 21 8 7 359 346 323 296 292 290 290 282 280 281 277 284 295 293 252 225 209 202 178 203 202 201 214 241 257 264 247 244 241 234 228 228 228 232 237
19 17 17 21 21 26 27 28 23 17 5 341 322 309 293 288 288 281 276 275 270 273 277 261 236 222 221 213 200 185 182 177 203 217 267 252 236 236 231 226 222 223 225 230
Wind_Speed_850mb
29 28 19 10 43 52 49 40 33 21 38 42 31 29 10 16 30 39 42 47 53 59 58 58 56 48 39 34 36 30 22 22 20 19 15 18 20 20 13 15 17 18 20 24
20 22 18 20 16 42 49 44 35 21 35 37 43 21 8 15 35 45 48 49 52 58 63 62 58 51 44 38 39 34 26 24 22 21 19 16 15 13 15 13 18 18 20 23
21 5 11 21 30 23 27 36 46 41 27 9 19 24 22 25 41 50 54 53 60 69 72 68 58 52 49 42 41 38 30 27 24 23 22 18 14 13 12 12 18 15 16 21
7 3 19 5 20 24 26 19 42 42 35 35 42 53 38 22 39 50 54 58 55 64 70 69 55 49 47 46 44 42 37 30 26 27 26 22 19 16 14 17 19 11 13 21
6 12 6 11 19 11 9 10 25 16 25 33 38 30 44 37 37 54 63 65 60 64 68 71 62 54 52 50 46 45 42 35 30 33 31 27 21 18 17 16 15 13 12 16
4 8 25 18 27 12 4 15 28 24 21 21 25 25 32 34 42 51 59 57 60 61 67 70 65 60 56 55 51 50 45 41 34 35 33 29 25 20 20 20 19 19 23 31
12 6 4 26 30 4 19 6 36 31 29 29 16 27 46 36 31 52 64 66 62 61 66 70 69 66 62 59 58 50 46 44 39 33 36 31 30 24 20 23 20 22 25 31
8 8 7 44 12 5 13 23 31 34 32 39 43 57 61 53 42 36 60 63 67 62 67 69 70 70 67 62 54 52 49 47 45 37 38 37 35 31 24 21 22 22 23 28
7 3 15 27 9 10 20 29 36 40 42 43 47 49 48 51 41 37 54 68 66 68 70 72 75 74 69 60 58 54 54 50 48 43 38 41 41 37 32 25 23 24 23 24
6 10 16 15 21 28 32 32 40 42 44 44 47 47 47 51 42 38 45 63 67 66 73 78 80 79 62 61 62 58 58 54 52 50 45 45 43 39 37 34 29 28 27 24
4 13 28 13 37 43 54 43 47 49 48 44 46 47 43 43 41 42 47 59 71 72 75 80 82 83 78 69 68 66 61 59 56 54 50 46 48 45 44 39 34 31 32 31
4 8 8 34 42 51 45 54 53 56 62 52 47 46 40 36 34 39 47 57 69 73 74 78 79 82 83 78 74 71 68 64 62 60 57 51 50 50 45 42 35 29 25 27
11 25 36 50 59 50 43 54 52 53 54 54 55 50 38 33 31 40 44 56 65 71 74 80 80 79 80 81 79 77 75 69 67 64 61 57 51 49 50 47 44 39 34 33
33 36 26 17 30 56 49 48 50 48 46 50 54 50 39 30 23 37 51 60 63 65 69 78 78 79 74 77 81 78 77 70 68 68 66 64 59 51 43 44 51 52 49 44
28 25 39 46 56 63 48 44 48 46 49 55 56 55 48 36 20 23 34 42 51 56 58 66 76 80 75 71 77 81 80 78 74 67 65 67 64 59 51 42 39 37 48 52
51 48 47 46 54 58 48 41 41 45 46 52 55 58 53 38 28 15 24 36 52 61 66 64 70 81 78 73 73 78 79 78 77 72 68 66 69 66 59 54 49 43 45 48
46 47 44 46 48 53 47 40 41 44 46 46 49 52 49 49 30 20 11 26 36 51 60 64 63 77 81 77 75 78 81 83 82 78 74 69 69 72 69 63 59 55 55 52
52 60 52 54 54 54 48 40 41 42 41 43 46 45 45 45 51 35 22 21 37 41 49 51 56 71 83 81 77 77 81 83 85 87 81 77 72 70 71 68 65 62 58 58
51 47 39 48 54 51 48 44 43 42 38 38 40 39 39 35 46 49 28 22 17 29 36 45 51 61 79 83 78 75 78 82 85 87 86 83 77 74 72 71 69 67 62 60
67 46 36 30 38 39 44 42 37 41 37 34 35 35 34 33 43 44 40 25 17 16 29 38 45 53 65 77 78 75 76 78 81 84 87 86 85 81 78 75 73 72 69 66
65 58 43 19 18 28 33 34 30 37 32 34 34 34 31 34 39 43 37 32 25 19 16 33 40 49 54 66 71 68 69 73 75 75 77 80 81 81 80 77 75 76 74 74
52 62 52 37 15 16 15 23 28 35 34 33 36 32 30 31 36 39 35 29 24 22 19 15 33 46 55 62 65 65 68 65 68 69 70 71 74 73 70 70 72 71 73 71
55 61 59 47 34 28 20 17 24 31 34 40 41 37 27 30 33 34 33 29 22 17 15 18 19 32 45 51 53 48 49 60 64 69 68 67 69 69 62 57 55 57 59 60
59 64 66 60 45 38 34 31 29 25 29 36 24 19 29 32 31 27 25 20 21 17 11 8 12 23 30 47 51 50 35 29 48 55 61 61 62 63 60 58 55 53 54 54
46 52 55 71 72 55 41 38 33 30 24 22 23 19 16 18 23 29 28 25 22 26 24 12 6 13 24 44 49 52 52 49 39 31 47 51 55 60 61 62 63 61 60 59
31 40 40 51 64 64 52 35 36 35 35 31 25 28 28 28 30 38 30 26 29 32 32 32 28 20 26 24 38 50 51 73 74 31 44 45 48 55 57 51 51 52 55 56
40 35 37 45 53 58 58 53 44 43 38 36 36 32 35 41 40 39 41 42 38 37 34 29 35 31 34 33 43 40 34 39 21 35 43 41 42 51 50 48 47 47 47 49
Wind_Direction_850mb
273 276 286 287 219 211 214 216 221 197 218 248 253 291 327 175 168 163 172 174 179 181 185 189 189 185 184 183 186 190 188 182 176 164 133 111 107 85 100 119 127 127 146 146
262 233 252 272 257 225 218 215 218 211 228 230 252 275 248 183 183 176 183 182 183 186 189 191 190 187 188 188 189 191 188 184 182 170 157 128 124 104 85 114 127 132 134 145
218 117 308 264 239 220 225 218 221 225 227 257 250 257 254 200 189 195 187 186 189 191 192 193 189 189 191 191 189 192 189 187 185 177 164 150 136 121 109 119 138 125 149 150
284 208 232 221 28 211 199 207 229 239 247 251 253 263 271 231 210 203 194 194 193 192 194 196 189 188 192 194 189 193 194 192 187 181 169 159 145 127 118 117 139 99 141 160
263 217 315 120 24 6 206 145 15 355 277 264 292 303 274 250 233 222 207 199 205 199 196 195 191 188 191 196 191 195 198 196 191 183 175 168 156 140 128 123 132 126 100 161
268 230 212 36 342 328 243 169 7 354 335 327 331 246 261 265 247 228 215 208 204 197 194 195 191 191 191 197 195 196 198 199 196 188 183 176 170 155 141 132 120 123 96 120
219 268 277 352 328 206 187 32 341 335 326 311 285 252 273 292 286 246 219 207 203 196 195 193 191 191 193 198 201 194 196 200 200 195 189 183 176 168 155 148 135 121 124 122
201 222 224 360 11 60 358 329 335 333 319 307 295 286 285 281 278 244 208 204 206 196 194 192 192 193 196 201 198 195 195 200 202 200 193 188 183 175 169 162 157 140 131 137
229 52 347 346 310 356 340 335 338 329 326 317 307 294 290 279 261 246 217 200 202 198 193 193 194 195 199 202 196 195 197 199 204 201 200 194 191 187 182 176 176 168 154 146
245 48 337 331 31 360 346 336 337 335 329 325 317 305 295 278 254 239 219 210 200 196 197 196 197 197 200 201 196 194 196 199 203 204 201 198 198 199 197 192 186 185 176 169
294 7 334 252 338 341 337 336 337 339 341 336 327 312 300 280 248 232 226 215 207 205 202 201 199 199 199 200 199 197 196 198 202 204 204 203 203 204 207 207 202 192 191 187
336 322 244 285 304 324 327 330 333 336 339 342 337 322 308 284 247 231 224 217 213 211 205 204 202 202 201 203 201 201 197 198 202 203 203 206 206 207 209 208 204 200 199 199
283 289 275 277 292 304 312 321 324 330 336 338 343 335 323 298 250 233 222 222 216 213 213 207 203 204 204 204 202 205 204 200 200 204 205 205 206 206 207 204 204 204 199 196
301 300 291 295 293 304 313 316 317 323 333 344 347 348 340 327 264 231 221 228 228 215 208 207 205 205 207 206 205 205 207 208 205 202 205 207 208 207 203 204 205 205 202 201
299 285 287 293 291 293 301 313 314 322 332 340 348 353 355 348 324 246 232 227 219 211 206 205 204 205 207 206 207 204 206 208 209 208 207 208 209 210 210 208 208 210 212 207
298 289 286 285 283 286 292 301 304 310 324 333 341 351 356 351 344 300 232 220 217 215 214 213 206 204 206 207 208 205 208 211 209 210 210 210 212 213 213 215 217 214 220 217
285 284 280 278 277 280 283 291 293 298 311 323 335 343 351 360 358 354 251 217 224 229 222 219 217 205 204 211 210 206 208 210 211 213 212 212 212 214 216 217 220 222 226 226
318 288 279 269 270 273 280 280 283 288 300 316 326 336 345 355 3 353 340 251 228 224 225 227 222 211 206 210 212 211 210 212 211 214 215 214 215 217 219 220 222 225 228 232
344 328 291 277 260 264 271 277 279 281 292 309 318 326 335 344 359 2 345 340 255 235 237 230 228 223 213 211 213 214 214 214 214 214 218 219 219 220 220 222 225 226 226 230
354 354 326 289 251 250 265 272 278 283 291 303 310 315 321 331 348 357 357 336 341 267 242 230 224 222 221 221 216 214 216 216 216 217 219 220 221 221 224 226 227 229 229 231
353 356 4 330 270 255 261 270 277 280 292 302 301 303 310 319 335 343 344 341 325 300 290 240 226 224 220 221 219 214 216 218 217 219 222 224 225 225 227 230 231 233 235 235
353 0 4 12 338 295 293 280 282 282 284 295 295 296 303 304 315 331 331 323 320 311 276 269 228 223 223 220 217 213 217 218 217 219 222 226 228 228 228 233 235 237 237 238
4 8 10 9 5 2 344 309 290 291 284 278 289 287 289 287 293 312 326 326 306 299 281 266 255 233 222 218 209 213 218 219 220 220 223 226 231 232 231 230 233 234 235 234
12 11 18 23 19 9 359 339 323 327 289 282 292 294 290 281 273 292 310 319 311 280 294 267 269 260 222 202 212 212 205 248 228 228 227 228 232 235 233 232 229 231 235 237
20 14 22 29 27 18 360 353 343 330 319 288 280 274 283 288 293 294 290 293 306 307 266 252 199 180 196 200 208 222 210 259 246 242 256 245 238 235 233 231 229 230 233 235
21 19 16 21 31 26 21 8 7 359 346 323 296 292 290 290 282 280 281 277 284 295 293 252 225 209 202 178 203 202 201 214 241 257 264 247 244 241 234 228 228 228 232 237
19 17 17 21 21 26 27 28 23 17 5 341 322 309 293 288 288 281 276 275 270 273 277 261 236 222 221 213 200 185 182 177 203 217 267 252 236 236 231 226 222 223 225 230